Location: Bílinka
(49.3579°N, 14.3767°E)
Time: 01:36:14
(UTC+00:00)

Cosmos 44 - Pass Details

Date: 28 January 2023
Orbit: 582 x 777 km, 65.1° (Epoch: 31 March)

Event Time Altitude Azimuth Distance (km) Brightness Sun altitude
Rises 16:43:36 0° 198° (SSW) 2,793 7.0 -8.7°
Reaches altitude 10° 16:45:52 10° 191° (SSW) 1,905 6.0 -9.0°
Maximum altitude 16:49:55 43° 120° (ESE) 850 3.5 -9.6°
Enters shadow 16:53:48 12° 51° (NE) 1,866 4.9 -10.2°
